Wind_Speed
19 21 24 26 28 31 34 35 36 36 37 37 38 38 37 37 36 34 32 29 28 27 29 30 30 30 29 30 30 31 32 31 31 32 32 33 33 34 34 35 36 37 37 39
15 17 18 21 24 27 30 32 33 34 34 34 35 36 35 35 34 32 30 29 29 30 31 31 30 29 30 30 31 32 32 33 33 33 34 34 34 34 35 35 36 37 37 38
12 13 15 17 19 22 26 28 30 31 31 32 33 33 33 33 33 32 32 32 32 32 31 31 30 29 29 29 30 32 33 34 34 35 36 36 36 35 35 35 36 37 38 38
10 11 13 14 17 19 22 24 26 27 28 29 30 32 31 32 33 34 34 33 33 31 30 30 28 27 28 29 31 32 33 33 34 34 33 33 34 34 35 35 36 37 38 38
11 13 14 15 16 18 19 21 22 23 24 26 28 31 31 31 33 33 33 31 29 27 26 26 25 26 28 29 31 31 31 31 30 29 29 29 30 32 34 35 36 37 38 38
10 12 13 13 14 16 17 19 20 21 22 23 25 27 27 27 27 27 28 26 25 23 24 24 24 26 28 29 30 30 30 29 27 27 28 28 30 32 33 34 35 37 37 38
8 10 10 11 12 13 14 16 17 17 18 19 21 22 22 22 22 22 22 22 21 22 22 23 24 25 27 29 30 29 28 28 28 29 30 30 31 32 33 34 35 36 36 37
5 6 9 10 11 13 14 14 15 15 16 17 18 20 20 21 21 21 21 22 22 22 22 22 24 26 28 29 30 29 29 30 30 31 32 33 34 35 35 35 36 36 36 36
4 5 8 10 12 14 15 15 15 16 16 16 17 19 20 21 21 21 21 22 22 22 23 24 26 28 29 30 30 31 32 32 33 34 35 36 36 36 37 37 37 37 36 36
7 6 8 11 12 14 15 15 16 17 19 19 18 19 20 20 21 22 22 23 24 25 26 27 29 30 32 32 33 34 35 35 36 37 37 38 38 37 37 37 37 37 36 36
9 9 9 11 12 13 14 14 15 17 20 21 20 20 21 22 24 25 26 27 28 29 30 32 33 35 36 37 38 39 39 40 40 39 39 39 39 39 39 38 38 37 37 37
10 10 10 12 12 13 14 15 17 19 20 22 24 25 23 25 27 29 30 31 33 34 35 36 38 39 41 43 44 44 44 44 44 43 42 42 41 41 40 40 39 37 37 37
12 12 12 13 15 16 17 18 20 22 24 25 27 30 29 30 30 32 34 35 37 38 40 41 42 44 46 48 49 50 50 50 49 48 46 45 45 44 42 41 39 38 37 37
13 13 15 16 18 19 20 21 23 26 28 29 30 33 34 35 36 37 39 40 41 42 44 46 48 50 52 53 54 55 55 55 54 53 51 49 47 46 44 42 40 38 37 36
15 16 16 18 20 21 21 21 24 26 29 32 33 34 36 37 39 40 42 43 45 46 48 51 53 54 56 58 59 60 59 59 58 56 54 52 50 48 46 43 41 40 37 36
18 19 19 19 22 23 24 25 26 28 30 33 34 35 36 38 40 42 44 46 48 51 53 56 57 59 61 62 63 64 63 63 61 61 60 58 55 52 49 46 43 41 38 36
21 22 22 22 24 26 26 28 31 32 33 35 37 38 40 41 43 45 48 50 53 56 59 61 63 64 65 66 66 66 68 69 68 68 67 64 60 56 52 48 45 42 39 36
23 25 26 26 27 30 31 32 33 36 37 39 41 42 43 43 46 49 52 55 57 60 63 65 67 69 71 73 74 75 76 76 76 75 72 69 65 60 56 52 48 44 40 37
26 27 29 30 32 35 36 38 39 41 42 43 43 44 46 49 51 54 58 62 65 68 71 74 76 79 80 81 82 81 79 79 78 77 74 70 67 63 58 54 50 46 42 39
27 29 31 34 36 38 40 41 42 43 44 45 47 50 54 57 60 62 66 69 72 74 76 78 80 81 82 83 83 82 79 77 75 72 69 65 62 59 56 53 49 46 42 40
27 30 31 34 36 39 40 41 43 45 47 50 54 57 60 63 66 69 72 75 77 79 80 80 81 80 80 78 77 74 69 65 62 59 57 55 53 53 52 51 49 46 43 40
30 32 33 35 37 39 41 43 45 48 51 55 59 63 66 70 73 76 78 79 79 79 77 75 74 71 68 64 61 57 53 50 48 46 44 42 42 44 46 47 47 46 44 41
32 34 36 37 39 41 43 46 50 54 57 61 65 69 73 76 78 79 78 76 73 69 66 63 60 56 50 47 45 43 41 39 39 38 37 38 38 39 41 44 46 45 44 42
34 35 37 39 41 44 48 52 56 60 64 68 72 76 78 80 79 76 71 65 60 56 53 48 44 40 37 37 37 37 36 36 36 36 35 35 35 35 36 39 44 46 45 42
35 38 40 43 46 49 53 57 61 66 70 73 76 77 77 74 69 64 58 53 49 45 41 39 37 35 34 35 35 35 36 37 36 35 34 34 33 33 33 35 42 46 46 42
38 41 44 48 51 55 58 63 67 71 74 77 77 75 69 63 58 52 47 43 40 37 36 36 36 36 36 36 36 36 38 38 37 36 34 34 32 30 28 32 39 45 46 42
Wind_Direction
220 221 224 226 230 234 239 243 247 250 253 255 258 260 263 265 267 269 271 274 278 284 289 292 293 293 294 295 298 299 300 303 307 310 311 310 308 305 302 298 294 290 287 283
213 219 223 227 230 233 238 242 246 248 249 251 254 256 260 262 264 267 269 274 278 283 287 289 288 289 291 293 297 300 304 309 312 314 314 313 311 308 305 301 297 293 289 285
220 225 229 232 233 235 239 242 245 247 249 251 253 255 257 261 265 268 273 276 279 283 284 285 286 286 288 292 297 302 306 311 314 315 316 316 315 312 309 305 301 295 290 285
234 241 243 246 247 247 246 248 250 252 254 253 256 256 257 262 266 270 274 276 278 280 280 282 282 282 287 292 297 301 305 309 311 313 315 316 317 317 315 311 306 300 294 289
255 256 253 252 253 256 257 258 259 260 260 260 260 261 263 265 268 271 274 276 278 277 276 276 278 284 288 292 295 299 302 304 307 310 313 317 318 318 317 315 311 305 298 292
261 262 259 259 260 263 265 267 269 269 268 266 265 267 269 269 271 272 274 275 274 273 273 274 279 284 287 289 291 294 296 298 301 306 312 317 319 320 319 318 316 312 305 297
265 263 264 265 267 270 273 275 276 276 274 271 271 271 272 272 272 271 271 270 270 272 274 276 279 280 281 282 284 287 291 295 299 304 310 314 318 320 321 321 320 317 311 305
278 272 271 271 270 272 276 279 280 280 277 273 273 273 275 274 273 272 271 271 273 275 275 275 275 275 275 277 280 286 291 297 301 305 309 313 316 318 319 321 321 320 316 311
302 287 284 279 276 276 280 281 284 284 283 278 277 278 277 280 281 279 278 277 278 279 279 278 276 275 276 279 284 290 296 300 304 306 308 310 312 314 316 319 320 320 318 315
331 315 299 294 290 290 289 288 287 288 289 288 286 283 282 283 285 286 285 285 285 286 285 283 281 282 284 287 291 295 299 302 304 305 307 307 309 310 312 315 317 318 318 317
330 322 313 306 301 299 294 292 291 290 291 293 292 288 290 289 290 290 290 289 287 286 285 284 285 287 290 293 296 299 301 302 303 303 305 305 306 307 309 311 314 315 317 317
331 324 318 313 313 307 301 297 295 294 295 296 297 297 296 293 292 291 291 289 288 287 286 287 289 291 294 296 298 300 301 301 302 303 303 304 304 305 306 308 309 312 314 315
335 327 321 314 313 311 307 303 301 300 299 300 301 301 301 297 294 292 290 289 288 287 288 288 290 292 294 296 297 298 299 300 301 301 302 302 302 302 303 304 305 307 310 312
333 329 321 316 310 309 307 305 304 302 301 300 300 299 298 296 294 292 290 289 288 288 289 289 290 291 292 293 294 296 296 298 299 298 298 298 299 299 299 299 300 302 304 307
329 326 321 315 310 310 308 302 298 296 296 296 297 295 294 293 292 291 290 290 289 289 289 289 289 289 290 291 292 292 293 294 294 295 295 294 295 295 295 294 295 297 299 302
324 321 318 315 309 307 305 301 298 295 294 293 293 293 292 291 290 289 289 289 289 288 288 287 286 287 287 288 288 288 288 288 289 291 293 292 291 291 290 290 289 291 293 295
321 318 316 313 309 307 305 304 301 298 297 297 297 296 295 294 293 292 291 290 289 289 288 286 284 284 283 283 284 283 284 285 286 288 289 288 287 286 285 284 283 284 286 287
318 316 314 312 310 308 307 305 304 303 302 300 299 299 298 297 295 293 289 287 287 286 285 283 281 281 282 283 284 284 283 284 284 285 286 285 284 282 280 278 277 277 277 278
316 314 313 313 312 311 310 310 310 308 306 305 305 302 298 295 293 289 287 286 285 284 283 283 283 283 283 284 284 284 284 284 284 284 284 282 280 278 275 272 270 269 269 269
315 314 313 312 312 310 310 311 311 310 308 306 302 299 297 296 294 292 290 289 288 288 287 287 287 287 287 287 286 286 286 285 284 284 282 280 277 274 270 265 261 259 259 259
314 314 313 313 312 310 312 312 312 308 306 305 303 303 302 300 299 297 295 294 292 292 291 290 290 289 289 289 288 288 288 287 286 284 283 280 275 270 264 257 251 248 247 249
320 318 317 316 315 314 315 313 312 310 309 308 307 305 304 302 301 299 298 297 296 295 294 294 293 292 292 292 291 291 290 289 287 286 284 281 278 272 262 251 243 239 236 239
323 322 321 321 319 319 319 317 316 314 313 311 309 308 306 304 303 302 302 301 300 299 298 297 297 296 295 294 293 293 292 289 288 287 286 283 280 278 266 249 236 230 228 229
326 326 325 325 324 323 321 320 319 317 315 313 312 310 309 308 307 307 306 306 304 303 302 301 300 298 297 295 295 294 293 291 291 290 288 286 282 279 269 249 232 222 218 222
330 329 328 327 326 325 323 322 320 318 316 314 313 312 312 311 311 311 310 309 308 307 306 304 302 300 299 297 295 294 292 291 292 291 289 288 284 279 270 248 227 217 212 215
331 331 329 328 328 326 325 323 321 320 318 316 315 314 315 315 315 315 315 314 313 313 311 308 305 304 302 300 298 295 292 291 291 291 290 288 284 278 265 241 223 213 209 210
Height
5857 5860 5862 5864 5866 5869 5871 5872 5874 5876 5877 5878 5878 5878 5879 5879 5879 5879 5878 5878 5877 5876 5875 5873 5871 5870 5867 5865 5862 5860 5857 5855 5853 5851 5849 5846 5844 5841 5838 5835 5832 5830 5828 5826
5857 5858 5859 5861 5862 5864 5866 5867 5869 5870 5870 5871 5871 5872 5872 5872 5872 5872 5872 5872 5872 5871 5869 5868 5866 5864 5862 5859 5856 5853 5851 5849 5846 5844 5841 5839 5836 5834 5830 5827 5824 5821 5819 5817
5856 5858 5858 5859 5860 5861 5862 5863 5864 5865 5865 5865 5866 5867 5866 5866 5866 5866 5866 5866 5866 5865 5863 5862 5860 5858 5855 5853 5850 5847 5844 5842 5839 5836 5834 5831 5828 5825 5822 5819 5816 5813 5810 5808
5856 5857 5858 5858 5858 5858 5859 5860 5860 5860 5861 5861 5862 5861 5862 5862 5861 5861 5860 5860 5860 5859 5857 5856 5854 5852 5849 5846 5844 5841 5839 5836 5833 5830 5827 5824 5820 5817 5814 5810 5807 5803 5800 5798
5856 5856 5857 5857 5857 5857 5856 5857 5857 5857 5857 5857 5856 5856 5857 5857 5856 5855 5855 5854 5854 5853 5851 5850 5848 5846 5843 5840 5838 5835 5833 5830 5827 5825 5822 5818 5814 5810 5806 5802 5798 5794 5790 5787
5855 5855 5855 5855 5855 5854 5854 5854 5853 5853 5853 5852 5851 5852 5852 5851 5851 5850 5850 5849 5848 5847 5846 5844 5842 5840 5837 5835 5832 5829 5827 5825 5822 5819 5816 5812 5808 5804 5799 5795 5790 5785 5780 5777
5854 5853 5853 5853 5853 5852 5852 5852 5851 5850 5849 5848 5847 5847 5848 5846 5846 5846 5845 5844 5843 5842 5841 5839 5837 5834 5831 5829 5826 5824 5821 5819 5816 5812 5809 5805 5801 5797 5792 5787 5782 5777 5772 5767
5852 5852 5851 5851 5850 5850 5849 5849 5848 5847 5846 5845 5844 5843 5844 5842 5842 5841 5840 5839 5838 5837 5835 5833 5831 5828 5825 5822 5820 5817 5815 5812 5808 5804 5801 5797 5793 5789 5784 5779 5774 5769 5764 5759
5852 5851 5850 5849 5848 5847 5846 5846 5845 5844 5843 5842 5841 5840 5839 5838 5837 5836 5835 5834 5832 5831 5829 5826 5824 5821 5818 5815 5812 5809 5806 5803 5799 5796 5792 5788 5784 5780 5776 5771 5766 5761 5756 5751
5850 5850 5849 5847 5846 5845 5844 5843 5842 5840 5839 5838 5837 5836 5836 5834 5833 5831 5829 5827 5826 5823 5821 5818 5815 5812 5808 5805 5802 5799 5796 5793 5790 5786 5783 5779 5776 5772 5767 5763 5758 5753 5748 5743
5848 5848 5847 5845 5843 5842 5841 5840 5838 5837 5835 5833 5831 5833 5831 5829 5827 5825 5822 5820 5817 5815 5812 5808 5805 5802 5798 5795 5792 5789 5786 5783 5780 5777 5774 5770 5766 5762 5759 5754 5750 5745 5741 5736
5847 5845 5844 5842 5841 5839 5837 5836 5834 5833 5831 5828 5826 5827 5824 5822 5819 5817 5814 5811 5808 5805 5801 5798 5794 5791 5787 5784 5781 5778 5775 5772 5769 5766 5763 5760 5756 5753 5749 5746 5741 5737 5733 5728
5845 5844 5842 5840 5840 5837 5834 5832 5830 5828 5826 5823 5821 5820 5816 5813 5810 5807 5804 5801 5798 5794 5791 5787 5783 5780 5776 5772 5769 5766 5763 5760 5757 5754 5752 5749 5746 5743 5739 5736 5733 5729 5725 5720
5844 5842 5841 5839 5835 5833 5831 5828 5825 5822 5819 5817 5815 5811 5807 5803 5800 5797 5793 5790 5786 5783 5779 5775 5771 5767 5764 5760 5757 5753 5750 5746 5744 5741 5739 5737 5734 5732 5729 5726 5723 5720 5716 5713
5842 5840 5837 5835 5831 5829 5827 5824 5821 5818 5814 5811 5807 5803 5799 5795 5791 5787 5783 5779 5775 5771 5767 5763 5759 5754 5751 5747 5743 5739 5736 5733 5730 5727 5725 5724 5722 5720 5718 5716 5713 5711 5708 5705
5839 5837 5834 5831 5828 5825 5822 5819 5816 5812 5808 5804 5799 5795 5791 5786 5782 5777 5772 5768 5763 5759 5754 5749 5745 5740 5735 5731 5727 5724 5720 5717 5714 5712 5710 5709 5707 5706 5705 5704 5702 5700 5698 5696
5835 5832 5829 5827 5823 5819 5816 5813 5808 5804 5800 5796 5791 5787 5781 5776 5771 5765 5760 5755 5749 5744 5739 5733 5728 5723 5718 5714 5709 5706 5703 5699 5696 5694 5692 5691 5691 5691 5690 5690 5690 5689 5688 5686
5831 5827 5824 5820 5818 5813 5812 5806 5801 5796 5791 5786 5780 5775 5769 5764 5759 5753 5746 5740 5734 5728 5722 5716 5710 5704 5699 5694 5689 5686 5682 5679 5675 5673 5671 5670 5671 5672 5673 5674 5675 5675 5676 5675
5826 5822 5818 5814 5810 5806 5801 5796 5791 5786 5780 5774 5769 5763 5757 5751 5747 5741 5732 5725 5718 5711 5704 5697 5690 5683 5677 5671 5666 5662 5659 5655 5652 5650 5648 5647 5648 5650 5652 5655 5657 5660 5662 5663
5821 5817 5813 5808 5803 5798 5794 5787 5781 5776 5769 5764 5757 5751 5745 5738 5731 5726 5715 5706 5698 5689 5680 5672 5665 5658 5652 5645 5639 5636 5633 5629 5626 5624 5623 5623 5623 5626 5629 5634 5638 5642 5646 5649
5817 5813 5808 5802 5796 5790 5785 5778 5773 5767 5762 5753 5745 5737 5728 5719 5711 5702 5692 5682 5673 5664 5655 5647 5639 5633 5626 5619 5614 5610 5607 5604 5602 5600 5600 5599 5600 5602 5606 5611 5617 5624 5630 5634
5811 5806 5801 5795 5789 5785 5777 5770 5764 5758 5748 5739 5730 5721 5711 5701 5690 5679 5668 5658 5647 5638 5629 5620 5612 5607 5601 5595 5589 5587 5585 5583 5580 5579 5579 5579 5579 5580 5583 5588 5596 5604 5612 5619
5804 5799 5793 5788 5783 5775 5767 5760 5752 5744 5735 5725 5714 5703 5691 5679 5667 5655 5644 5633 5623 5614 5605 5598 5591 5587 5583 5578 5573 5571 5569 5567 5565 5564 5563 5562 5562 5562 5563 5568 5576 5585 5594 5603
5798 5792 5786 5780 5774 5766 5758 5750 5740 5730 5720 5708 5695 5682 5669 5655 5643 5631 5621 5611 5602 5594 5587 5581 5575 5572 5569 5566 5562 5559 5556 5554 5552 5550 5549 5548 5547 5547 5546 5550 5558 5567 5578 5588
5792 5785 5779 5772 5765 5757 5749 5738 5728 5716 5704 5690 5677 5662 5648 5634 5622 5611 5602 5594 5587 5580 5575 5569 5564 5561 5558 5555 5551 5548 5545 5542 5540 5538 5536 5535 5534 5533 5533 5536 5542 5552 5562 5574
5785 5779 5772 5764 5755 5746 5737 5726 5713 5700 5687 5673 5658 5645 5631 5616 5605 5596 5589 5582 5576 5570 5565 5560 5555 5551 5548 5544 5541 5537 5534 5530 5528 5526 5525 5523 5522 5521 5521 5523 5530 5539 5550 5562